This is the latest recevied weather packets stored in our database for station/object KI4MRC. If no packets are shown the sender has not sent any weather packets the latest 10 day(s).
| Time | Temp. | Humidity | Pressure | Rain* | Wind** | Luminosity | Snow |
|---|---|---|---|---|---|---|---|
| 1778028375 | 25° C | 81% | 1014.9 hPa | 0 mm | - | 0 W/m² | - |
| 1778028072 | 25° C | 81% | 1014.9 hPa | 0 mm | - | 0 W/m² | - |
| 1778027769 | 25° C | 81% | 1015 hPa | 0 mm | - | 0 W/m² | - |
| 1778027465 | 25° C | 82% | 1015 hPa | 0 mm | - | 0 W/m² | - |
| 1778027160 | 25° C | 81% | 1014.8 hPa | 0 mm | - | 0 W/m² | - |
| 1778026857 | 25° C | 81% | 1014.8 hPa | 0 mm | - | 0 W/m² | - |
| 1778026553 | 25° C | 81% | 1014.9 hPa | 0 mm | - | 0 W/m² | - |
| 1778026250 | 25° C | 80% | 1014.8 hPa | 0 mm | - | 0 W/m² | - |
| 1778025947 | 25° C | 80% | 1014.8 hPa | 0 mm | - | 0 W/m² | - |
| 1778025645 | 25° C | 80% | 1014.8 hPa | 0 mm | - | 1 W/m² | - |
| 1778025343 | 25° C | 79% | 1014.7 hPa | 0 mm | - | 2 W/m² | - |
| 1778025039 | 25° C | 80% | 1014.8 hPa | 0 mm | - | 3 W/m² | - |
| 1778024736 | 25° C | 80% | 1014.6 hPa | 0 mm | - | 6 W/m² | - |
| 1778024433 | 25° C | 79% | 1014.5 hPa | 0 mm | - | 9 W/m² | - |
| 1778024131 | 25.56° C | 79% | 1014.4 hPa | 0 mm | - | 11 W/m² | - |
| 1778023828 | 25.56° C | 79% | 1014.5 hPa | 0 mm | - | 15 W/m² | - |
| 1778023526 | 25.56° C | 79% | 1014.3 hPa | 0 mm | - | 20 W/m² | - |
| 1778023223 | 25.56° C | 79% | 1014.4 hPa | 0 mm | - | 22 W/m² | - |
| 1778022920 | 25.56° C | 78% | 1014.2 hPa | 0 mm | - | 24 W/m² | - |
| 1778022619 | 25.56° C | 78% | 1014.5 hPa | 0 mm | - | 31 W/m² | - |
| 1778022315 | 25.56° C | 78% | 1014.3 hPa | 0 mm | - | 35 W/m² | - |
| 1778022012 | 26.11° C | 77% | 1014.4 hPa | 0 mm | - | 41 W/m² | - |
| 1778021709 | 26.11° C | 77% | 1014.4 hPa | 0 mm | - | 45 W/m² | - |
| 1778021405 | 26.11° C | 77% | 1014.5 hPa | 0 mm | - | 55 W/m² | - |
| 1778021102 | 26.11° C | 77% | 1014.5 hPa | 0 mm | - | 60 W/m² | - |
* Rain latest hour (hover to see other rain measurements)
** Current wind speed in m/s (hover to see current wind gust speed)